This is the latest recevied weather packets stored in our database for station/object AE5PL. If no packets are shown the sender has not sent any weather packets the latest 1 day(s).
| Time | Temp. | Humidity | Pressure | Rain* | Wind** | Luminosity | Snow |
|---|---|---|---|---|---|---|---|
| 1836274799 | 24.44° C | 82% | 1015.4 hPa | - | 0 m/s | - | - |
| 1836274499 | 24.44° C | 81% | 1015.3 hPa | - | 0 m/s | - | - |
| 1836274349 | 24.44° C | 82% | 1015.4 hPa | - | 0 m/s | - | - |
| 1836274199 | 24.44° C | 81% | 1015.3 hPa | - | 0 m/s | - | - |
| 1836273899 | 25° C | 81% | 1015.2 hPa | - | 0 m/s | - | - |
| 1778051250 | 13.33° C | 78% | 1009.4 hPa | - | 1.34 m/s, 22° | - | - |
| 1778050950 | 13.33° C | 78% | 1009.3 hPa | - | 1.79 m/s, 337° | - | - |
| 1778050650 | 13.33° C | 78% | 1009.4 hPa | - | 1.79 m/s, 22° | - | - |
| 1778050350 | 13.33° C | 78% | 1009.4 hPa | - | 2.24 m/s, 360° | - | - |
| 1778050050 | 13.89° C | 78% | 1009.3 hPa | - | 2.68 m/s, 337° | - | - |
| 1778049750 | 13.89° C | 79% | 1009.4 hPa | - | 2.24 m/s, 360° | - | - |
| 1778049450 | 13.89° C | 79% | 1009.5 hPa | - | 2.68 m/s, 360° | - | - |
| 1778049150 | 13.89° C | 79% | 1009.4 hPa | - | 3.13 m/s, 360° | - | - |
| 1778048850 | 13.89° C | 79% | 1009.4 hPa | - | 3.13 m/s, 360° | - | - |
| 1778048550 | 13.89° C | 79% | 1009.3 hPa | - | 3.13 m/s, 360° | - | - |
| 1778048250 | 13.89° C | 80% | 1009.3 hPa | - | 3.13 m/s, 360° | - | - |
| 1778047950 | 13.89° C | 79% | 1009.4 hPa | - | 3.13 m/s, 337° | - | - |
| 1778047650 | 13.89° C | 80% | 1009.3 hPa | - | 3.13 m/s, 360° | - | - |
| 1778047350 | 13.89° C | 80% | 1009.3 hPa | - | 2.68 m/s, 337° | - | - |
| 1778047050 | 13.89° C | 80% | 1009.3 hPa | - | 3.13 m/s, 360° | - | - |
| 1778046750 | 14.44° C | 80% | 1009.4 hPa | - | 2.68 m/s, 337° | - | - |
| 1778046450 | 14.44° C | 80% | 1009.2 hPa | - | 3.13 m/s, 360° | - | - |
| 1778046150 | 14.44° C | 80% | 1009.2 hPa | - | 2.68 m/s, 22° | - | - |
| 1778045850 | 14.44° C | 80% | 1009.3 hPa | - | 3.13 m/s, 22° | - | - |
| 1778045550 | 14.44° C | 80% | 1009.4 hPa | - | 2.68 m/s, 337° | - | - |
* Rain since midnight (hover to see other rain measurements)
** Current wind speed in m/s (hover to see current wind gust speed)